Regional Weather Roundup
Issued by NWS

Home | Current Version | Previous Version | Text Only | Print | Product List | Glossary Off
Versions: 1 2 3 4 5 6 7 8 9 10 11 12 13 14 15 16 17 18 19 20 21 22 23 24 25 26 27 28 29 30 31 32 33 34 35 36 37 38 39 40 41 42 43 44 45 46 47 48 49 50

000
ASUS43 KLMK 302210
RWRKY
KENTUCKY REGIONAL WEATHER ROUNDUP
NATIONAL WEATHER SERVICE LOUISVILLE KY
600 PM EDT THU MAR 30 2017

NOTE "FAIR" INDICATES FEW OR NO CLOUDS BELOW 12,000 FEET
WITH NO SIGNIFICANT WEATHER AND/OR OBSTRUCTIONS TO VISIBILITY.

KYZ001>023-026-027-061>063-070>075-302300-
WESTERN AND SOUTH CENTRAL KENTUCKY

CITY           SKY/WX    TMP DP  RH WIND       PRES   REMARKS
PADUCAH        MOSUNNY   67  57  70 S7G24     29.54F
HENDERSON      CLOUDY    68  52  56 W22G28    29.56R
OWENSBORO      PTSUNNY   74  54  49 S20       29.57
HOPKINSVILLE   CLOUDY    74  53  46 SW24G32   29.59F
BOWLING GREEN  PTSUNNY   76  55  48 S17G23    29.61F
GLASGOW        CLOUDY    75  53  45 SW9G22    29.62F
$$

KYZ024-025-028>034-038-045-046-053-302300-
NORTH CENTRAL KENTUCKY

CITY           SKY/WX    TMP DP  RH WIND       PRES   REMARKS
LOUISVILLE/SDF CLOUDY    77  50  38 SW17G30   29.58F
LOUISVILLE/LOU CLOUDY    77  53  43 S12G21    29.59F
FORT KNOX      CLOUDY    74  54  49 S16G24    29.59S
$$

KYZ035>037-039>044-047>052-055>060-089>105-302300-
NORTHEAST KENTUCKY

CITY           SKY/WX    TMP DP  RH WIND       PRES   REMARKS
LEXINGTON      CLOUDY    76  50  40 SW6       29.63S
COVINGTON      CLOUDY    76  50  40 SW17      29.60F
FRANKFORT      CLOUDY    77  50  38 SW12      29.61S
$$

KYZ054-064>069-076>088-106>120-302300-
SOUTHEAST KENTUCKY

CITY           SKY/WX    TMP DP  RH WIND       PRES   REMARKS
JACKSON        PTSUNNY   78  49  35 VRB5G17   29.68F
LONDON         MOSUNNY   77  47  34 S14G23    29.68S
SOMERSET       CLOUDY    77  45  31 S15G21    29.67F
MIDDLESBORO    CLOUDY    79  46  31 S10G25    29.72S
MONTICELLO     CLOUDY    78  52  40 SW22G30   29.67F
$$





USA.gov is the U.S. government's official web portal to all federal, state and local government web resources and services.